EHI
11 10 10 9 8 7 8 7 6 6 4 3 4 6 6 6 5 4 4 4 3 3 3 3 3 3 4 5 4 2 1 0 0 0 1 2 2 1 2 3 2 1 0
8 7 7 6 6 7 8 7 6 6 4 3 4 5 5 4 4 3 2 2 2 3 3 3 3 3 3 3 3 1 1 0 0 0 1 2 2 2 2 2 2 1 0
4 3 3 3 3 4 6 6 6 6 5 4 3 4 4 3 3 2 1 1 2 3 3 3 3 1 1 2 1 0 0 0 0 0 0 1 1 1 1 1 1 1 1
1 1 1 1 1 2 3 4 5 6 5 4 3 3 3 3 3 3 2 2 3 3 3 3 2 1 0 0 0 0 0 0 0 0 0 0 0 1 1 1 1 0 0
0 0 0 0 0 0 1 2 4 5 5 4 3 3 2 3 3 2 3 3 3 3 2 2 1 0 0 0 0 0 0 0 0 0 0 0 0 0 1 1 0 0 0
0 0 0 0 0 0 1 2 4 5 6 5 4 4 3 2 1 1 3 3 3 2 1 0 0 0 0 0 0 0 0 0 0 0 0 0 0 0 0 0 0 0 0
0 0 0 0 0 0 1 3 4 5 6 6 6 5 3 1 0 1 2 3 4 3 1 0 0 0 0 0 0 0 0 0 0 0 0 0 0 0 0 0 0 0 0
0 0 0 0 0 0 1 3 3 4 5 6 6 5 4 2 0 0 1 3 4 3 2 1 0 0 0 0 0 0 0 0 0 0 0 0 0 0 0 0 0 0 0
0 0 0 0 0 0 1 2 2 3 3 4 4 4 4 3 1 0 0 1 2 3 2 1 0 0 0 0 0 0 0 0 0 0 0 0 0 0 0 0 0 0 0
0 0 0 0 0 0 0 1 1 2 3 2 1 2 3 3 1 0 0 0 1 1 1 0 0 0 0 0 0 0 0 0 0 0 0 0 0 0 0 0 0 0 0
0 0 0 0 0 0 0 0 1 2 3 2 1 1 2 1 0 0 0 0 0 0 0 0 0 0 0 0 0 0 0 0 0 0 0 0 0 0 0 0 0 0 0
0 0 0 0 0 0 0 0 1 2 3 2 2 1 1 0 0 0 0 0 0 0 0 0 0 0 0 0 0 0 0 0 0 0 0 0 0 0 0 0 0 0 0
0 0 0 0 0 0 0 0 0 1 1 2 1 1 0 0 0 0 0 0 0 0 0 0 0 0 0 0 0 0 0 0 0 0 0 0 0 0 0 0 0 0 0
1 1 0 0 0 0 0 0 0 0 0 0 0 0 0 0 0 0 0 0 0 0 0 0 0 0 0 0 0 0 0 0 0 0 0 0 0 0 0 0 0 0 0
0 0 0 0 0 0 0 0 0 0 0 0 0 0 0 0 0 0 0 0 0 0 0 0 0 0 0 0 0 0 0 0 0 0 0 0 0 0 0 0 0 0 0
0 0 0 0 0 0 0 0 0 0 0 0 0 0 0 0 0 0 0 0 0 0 0 0 0 0 0 0 0 0 0 0 0 0 0 0 0 0 0 0 0 0 0
1 0 0 0 0 0 0 0 0 0 0 0 0 0 0 0 0 0 0 0 0 0 0 0 0 0 0 0 0 0 0 0 0 0 0 0 0 0 0 0 0 0 0
2 1 0 0 0 0 0 0 0 0 0 0 0 0 0 0 0 0 0 0 0 0 0 0 0 0 0 0 0 0 0 0 0 0 0 0 0 0 0 0 0 0 0
3 2 0 0 0 0 0 0 0 0 0 0 0 0 0 0 0 0 0 0 0 0 0 0 0 0 0 0 0 0 0 0 0 0 0 0 0 0 0 0 0 0 0
2 1 0 0 0 0 0 0 0 0 0 0 0 0 0 0 0 0 0 0 0 0 0 0 0 0 0 0 0 0 0 0 0 0 0 0 0 0 0 0 0 0 0
2 1 0 0 0 0 0 0 0 0 0 0 0 0 0 0 0 0 0 0 0 0 0 0 0 0 0 0 0 0 0 0 0 0 0 0 0 0 0 0 0 0 0
1 0 0 0 0 0 0 0 0 0 0 0 0 0 0 0 0 0 0 0 0 0 0 0 0 0 0 0 0 0 0 0 0 0 0 0 0 0 0 0 0 0 0
0 0 0 0 0 0 0 0 0 0 0 0 0 0 0 0 0 0 0 0 0 0 0 0 0 0 0 0 0 0 0 0 0 0 0 0 0 0 0 0 0 0 0
0 0 0 0 0 0 0 0 0 0 0 0 0 0 0 0 0 0 0 0 0 0 0 0 0 0 0 0 0 0 0 0 0 0 0 0 0 0 0 0 0 0 0
0 0 0 0 0 0 0 0 0 0 0 0 0 0 0 0 0 0 0 0 0 0 0 0 0 0 0 0 0 0 0 0 0 0 0 0 0 0 0 0 0 0 0
0 0 0 0 0 0 0 0 0 0 0 0 0 0 0 0 0 0 0 0 0 0 0 0 0 0 0 0 0 0 0 0 0 0 0 0 0 0 0 0 0 0 0
Wind_Speed
2 2 1 1 1 1 1 1 1 1 2 2 3 2 2 2 2 2 3 3 3 3 3 4 4 5 5 4 4 4 5 6 7 5 3 2 3 4 2 3 3 3 3
1 1 1 1 2 1 1 1 1 2 2 3 2 2 2 2 2 2 2 2 3 3 3 4 4 4 5 4 3 4 4 5 6 6 4 3 3 3 3 3 2 2 2
1 1 1 1 1 1 1 1 1 2 2 1 1 1 1 1 1 1 2 2 3 3 3 3 4 4 4 3 4 4 4 4 4 4 4 3 3 3 3 3 3 2 3
1 1 1 1 1 1 1 2 2 2 1 1 0 0 0 0 0 1 1 2 2 2 3 3 3 3 3 4 3 4 4 4 4 4 3 3 3 3 3 3 3 3 3
1 1 0 1 1 1 1 1 2 1 1 1 1 0 1 1 1 2 2 2 2 2 2 2 2 2 3 3 4 4 4 3 3 3 3 3 3 2 3 3 3 3 3
1 1 1 1 1 1 1 1 1 2 1 1 1 1 1 1 3 2 4 4 3 2 2 2 2 1 1 2 3 4 5 4 4 3 3 3 3 3 3 3 3 3 3
2 2 1 1 1 1 1 1 2 2 1 1 1 1 1 1 1 1 3 4 3 3 2 3 3 2 1 2 2 4 3 3 4 5 4 4 4 3 3 4 3 4 4
2 2 1 1 1 1 1 1 1 1 1 1 1 1 2 1 1 1 3 4 3 3 3 3 3 3 2 3 3 3 2 2 3 4 3 4 4 3 4 4 4 5 5
2 2 1 1 1 1 1 2 2 2 2 2 1 2 2 1 1 1 3 2 2 3 3 3 3 3 1 3 4 4 3 2 2 2 3 4 5 5 5 5 5 5 5
3 3 2 2 2 1 1 2 2 2 2 2 2 2 2 2 0 1 3 3 2 3 2 2 1 2 1 3 4 4 4 4 3 3 4 6 7 7 8 7 6 5 5
3 3 2 2 2 2 2 2 2 2 2 2 2 2 2 2 2 2 3 3 3 3 3 2 1 3 2 4 5 4 4 5 6 5 4 4 5 5 6 6 6 6 6
3 3 2 2 2 1 2 2 2 2 2 2 1 2 1 0 0 1 2 4 5 4 3 2 2 1 3 5 5 4 5 7 6 5 4 4 4 4 4 4 5 6 7
2 2 2 2 2 2 3 3 3 2 2 2 1 1 1 1 1 3 3 4 5 4 3 3 3 5 6 6 6 7 7 6 5 4 4 4 4 4 5 5 6 7 9
3 2 2 3 3 2 3 3 2 2 2 2 2 2 2 2 1 2 1 1 3 4 3 2 6 8 8 6 5 6 6 3 4 5 5 4 4 4 5 5 5 5 6
2 2 2 1 1 1 1 1 2 2 2 2 3 3 3 3 4 5 4 4 3 3 3 3 3 3 3 3 3 3 3 3 4 4 5 5 5 5 5 5 5 6 6
2 2 1 1 0 1 1 1 1 0 1 1 3 4 3 2 3 4 4 4 4 4 4 3 3 4 4 4 4 4 3 4 4 5 5 5 5 6 5 5 5 6 6
2 2 2 1 1 1 1 1 0 1 2 1 2 2 2 3 3 3 4 4 5 4 4 3 3 3 4 4 4 4 5 4 4 5 6 6 5 6 6 6 5 5 6
2 2 3 2 1 1 1 1 1 1 0 1 1 2 3 3 4 4 4 4 4 4 3 3 3 3 4 4 4 4 5 5 5 5 6 6 6 6 6 6 6 6 6
2 1 1 1 1 1 1 1 1 1 1 1 0 1 2 3 5 4 4 4 4 3 3 4 4 4 4 4 4 5 5 5 5 5 5 6 6 6 6 7 7 6 7
2 1 2 2 1 1 1 1 1 1 1 1 1 1 1 2 2 1 2 3 3 3 4 4 4 5 5 4 4 5 5 5 5 5 5 5 5 6 7 8 7 8 7
1 2 3 3 1 1 1 1 1 1 1 1 1 2 3 4 3 3 3 3 3 3 3 4 5 4 4 4 4 5 6 5 5 6 6 6 7 7 7 7 7 8 8
1 1 1 1 1 1 2 2 1 1 1 2 1 0 2 3 3 3 3 3 3 3 4 4 5 5 5 5 5 5 6 6 6 6 7 7 7 7 7 7 7 7 7
2 2 1 2 1 1 3 2 1 1 1 2 2 2 1 2 3 3 3 3 3 4 4 4 4 5 5 5 4 5 6 6 7 7 8 8 7 7 7 7 8 8 8
2 2 2 1 1 2 1 1 1 1 1 2 2 2 2 3 3 3 4 4 4 4 4 4 4 6 7 6 5 4 5 6 8 7 9 9 8 8 8 8 8 8 7
2 2 2 1 1 2 1 1 1 1 2 2 2 3 3 3 3 3 3 4 5 4 5 5 4 5 7 8 7 7 7 6 6 8 8 8 9 9 9 9 8 9 8
2 2 2 2 1 2 1 1 2 2 2 2 2 2 3 3 3 3 4 4 5 4 5 4 6 7 7 6 8 7 5 6 6 7 8 7 7 7 9 8 9 8 8
Wind_Direction
55 61 20 352 345 317 296 303 289 281 256 231 226 219 222 225 227 235 257 261 265 276 283 284 283 282 277 273 264 264 262 261 266 275 272 270 266 271 264 268 264 241 203
76 71 52 353 345 341 336 325 303 287 266 233 223 218 222 226 227 232 248 259 271 280 287 290 291 285 282 278 273 272 272 270 267 274 280 271 267 267 267 263 264 260 241
84 65 44 9 333 320 332 337 316 312 310 257 200 209 223 226 223 225 241 262 277 286 290 290 291 291 293 297 288 282 277 275 270 269 278 282 272 267 264 255 249 245 243
38 31 42 8 343 331 349 351 338 339 326 317 61 16 324 296 293 289 286 290 304 312 310 307 303 303 309 313 299 292 288 285 275 265 266 270 268 264 261 254 249 232 240
325 331 17 342 324 303 325 337 346 336 342 350 21 353 324 322 15 341 311 306 314 316 314 317 330 338 329 310 307 305 295 280 277 273 268 265 264 266 272 275 267 256 243
316 308 338 327 311 292 309 343 357 355 355 355 336 312 321 12 58 351 295 295 295 296 308 320 309 231 246 256 287 294 298 292 294 287 277 275 276 273 275 271 269 266 261
291 297 313 291 296 301 314 5 12 351 344 355 334 334 358 52 92 287 281 278 282 288 291 293 303 352 289 284 240 233 250 260 270 284 287 285 281 283 280 272 270 273 272
282 283 276 269 286 321 326 350 355 344 333 320 319 348 335 28 121 264 278 261 284 291 282 280 281 286 318 309 288 288 285 270 260 259 278 283 289 295 281 271 274 270 264
279 289 271 268 279 289 331 350 347 334 324 317 342 332 320 344 145 248 279 271 280 291 285 284 280 276 359 307 277 280 290 286 226 231 275 286 296 286 281 273 265 262 264
275 280 274 264 273 280 301 316 324 313 304 310 332 307 285 286 184 228 269 264 277 287 286 263 222 245 291 294 270 278 288 301 305 266 236 235 240 236 231 246 264 267 273
281 278 270 262 262 262 274 292 292 296 311 310 315 309 284 274 231 214 255 270 288 299 305 308 33 133 243 279 276 275 285 292 286 278 264 255 248 240 233 233 244 259 268
273 271 269 265 270 257 263 275 279 284 287 284 301 311 308 248 297 172 226 249 278 274 284 309 31 72 291 279 267 263 267 269 265 268 270 270 270 266 260 255 251 256 261
266 269 270 258 256 256 261 259 253 251 278 294 306 325 348 6 126 183 211 237 252 263 303 340 302 273 269 257 233 241 249 252 264 273 279 279 282 283 277 261 248 243 248
252 253 254 249 242 237 257 258 260 270 294 311 317 325 335 325 349 12 329 243 218 231 255 242 228 241 247 256 250 235 241 262 281 282 283 283 279 272 265 265 265 256 253
252 247 246 242 240 228 240 310 297 338 350 307 315 312 323 335 12 2 323 317 326 350 323 277 267 258 254 252 260 273 275 264 258 270 277 278 275 274 273 273 272 269 264
240 252 262 261 278 245 214 152 91 303 78 251 269 288 328 355 333 331 329 312 296 291 280 276 294 301 300 304 304 298 288 287 291 288 283 282 282 283 283 279 273 274 276
250 256 264 268 283 258 250 256 177 145 160 216 241 247 247 280 291 290 288 280 263 242 249 273 292 305 306 303 302 303 307 308 302 295 290 286 281 282 281 278 274 274 277
245 234 249 252 285 289 257 251 260 288 249 105 142 176 209 237 255 263 268 266 248 226 259 285 296 300 302 308 311 314 317 312 299 292 290 290 287 286 287 284 277 276 278
249 254 266 284 284 282 259 253 269 280 305 345 11 139 199 228 233 247 255 278 309 315 316 316 315 316 319 320 317 311 310 308 304 298 295 296 295 289 284 284 284 278 273
224 190 255 262 261 263 248 257 278 295 318 344 352 15 351 294 300 308 295 317 324 328 330 325 325 325 323 322 317 307 305 307 306 300 301 301 299 292 289 288 288 284 277
243 164 192 234 242 277 274 280 294 296 315 334 353 24 327 303 318 323 318 320 322 323 320 317 317 320 321 317 311 309 310 316 320 317 314 309 305 299 294 291 290 290 292
262 233 220 235 236 279 284 271 267 282 308 319 323 141 223 276 314 325 327 332 327 321 319 317 317 321 318 318 317 312 315 320 319 317 314 313 309 304 301 298 299 301 300
233 231 225 224 239 231 244 255 274 298 313 312 314 315 304 317 329 332 327 326 322 320 318 314 313 320 327 328 324 321 326 328 323 320 313 310 311 308 304 300 299 298 297
228 239 240 236 261 272 266 255 264 304 320 319 317 322 327 325 326 329 324 325 325 324 326 325 325 330 331 330 328 339 353 338 321 314 314 308 307 308 310 309 306 306 303
222 227 245 253 265 266 257 254 262 285 299 310 316 329 333 328 328 332 332 328 324 325 328 328 328 332 335 340 350 359 3 342 325 320 308 302 308 311 312 311 312 315 315
225 227 242 249 252 259 266 272 279 299 309 322 333 337 334 331 336 339 337 336 333 335 333 334 344 348 351 357 11 8 354 336 327 317 305 302 311 319 323 317 320 319 316